Nou Barris, Spain
Current Conditions -  °F | °C
As of 7:30 AM on Monday 24 Nov 2014 (Local Time) from LEBL Reporting Station
Few Clouds Few Clouds  
Wind Chill: 63°   Ceiling: Unl
Heat Index: 63°   Visibility: 6mi
Dew Point: 55°   Wind: 7mph
Humidity: 77%   Direction: 340°NNW
Pressure: 30.03"   Gusts: NA
Location:  41.44°N, 2.18°E
Report Text: LEBL 240630Z 34006KT 9999 FEW010 17/13 Q1017 NOSIG
Loading
Personal Weather Stations






























Interactive Weather Map New forecast layout! Learn more

10-Day Weather Forecast

Advertisements
Track Severe Weather on mobile